This is the latest recevied weather packets stored in our database for station/object DK7LH-6. If no packets are shown the sender has not sent any weather packets the latest 10 day(s).
| Time | Temp. | Humidity | Pressure | Rain* | Wind** | Luminosity | Snow |
|---|---|---|---|---|---|---|---|
| 1778136362 | 8.33° C | 92% | 1013.6 hPa | 0 mm | - | 129 W/m² | - |
| 1778135431 | 8.33° C | 94% | 1013.4 hPa | 0 mm | - | 140 W/m² | - |
| 1778134563 | 7.78° C | 95% | 1013.2 hPa | 0 mm | - | 100 W/m² | - |
| 1778133633 | 7.22° C | 95% | 1013.2 hPa | 0 mm | - | 102 W/m² | - |
| 1778132766 | 7.22° C | 96% | 1013 hPa | 0 mm | - | 81 W/m² | - |
| 1778131836 | 7.22° C | 96% | 1013 hPa | 0 mm | - | 49 W/m² | - |
| 1778130967 | 7.22° C | 97% | 1012.7 hPa | 0 mm | - | 46 W/m² | - |
| 1778130037 | 6.67° C | 97% | 1012.4 hPa | 0 mm | - | 22 W/m² | - |
| 1778129169 | 6.67° C | 97% | 1012.5 hPa | 0 mm | - | 15 W/m² | - |
| 1778128239 | 6.67° C | 97% | 1012.3 hPa | 0 mm | - | 8 W/m² | - |
| 1778127340 | 6.11° C | 97% | 1012.2 hPa | 0 mm | - | 6 W/m² | - |
| 1778126473 | 6.11° C | 97% | 1012.1 hPa | 0 mm | - | 3 W/m² | - |
| 1778125543 | 5.56° C | 96% | 1011.9 hPa | 0 mm | - | 1 W/m² | - |
| 1778124674 | 5.56° C | 96% | 1011.8 hPa | 0 mm | - | 0 W/m² | - |
| 1778123744 | 5.56° C | 96% | 1011.6 hPa | 0 mm | - | 0 W/m² | - |
| 1778122876 | 5.56° C | 95% | 1011.6 hPa | 0 mm | - | 0 W/m² | - |
| 1778121946 | 5.56° C | 95% | 1011.5 hPa | 0 mm | - | 0 W/m² | - |
| 1778121016 | 6.11° C | 95% | 1011.3 hPa | 0 mm | - | 0 W/m² | - |
| 1778120148 | 6.11° C | 94% | 1011.3 hPa | 0 mm | - | 0 W/m² | - |
| 1778119219 | 6.11° C | 94% | 1011.1 hPa | 0 mm | - | 0 W/m² | - |
| 1778118350 | 6.11° C | 94% | 1011.1 hPa | 0 mm | - | 0 W/m² | - |
| 1778117420 | 6.11° C | 94% | 1011 hPa | 0 mm | - | 0 W/m² | - |
| 1778116552 | 6.11° C | 94% | 1011 hPa | 0 mm | - | 0 W/m² | - |
| 1778115622 | 6.67° C | 94% | 1010.9 hPa | 0 mm | - | 0 W/m² | - |
| 1778114754 | 6.67° C | 93% | 1010.7 hPa | 0 mm | - | 0 W/m² | - |
* Rain latest hour (hover to see other rain measurements)
** Current wind speed in m/s (hover to see current wind gust speed)